Date,TemperatureHighF,TemperatureAvgF,TemperatureLowF,DewpointHighF,DewpointAvgF,DewpointLowF,HumidityHigh,HumidityAvg,HumidityLow,PressureMaxIn,PressureMinIn,WindSpeedMaxMPH,WindSpeedAvgMPH,GustSpeedMaxMPH,PrecipitationSumIn
2012-1-1,52.3,42.4,31.6,45.0,31.0,19.8,86,68,29,30.09,29.65,14,3,15,0.16
2012-1-2,46.8,37.8,29.5,40.3,6.6,-4.8,78,29,16,29.77,29.62,26,7,26,0.00
2012-1-3,29.5,22.1,10.8,8.0,-7.7,-23.4,46,27,19,30.09,29.77,26,6,26,0.00
2012-1-4,28.0,18.0,9.0,-8.3,-16.3,-24.9,29,20,18,30.18,29.94,17,5,17,0.00
2012-1-5,40.5,30.0,21.7,5.9,-1.5,-8.6,35,26,18,29.94,29.80,20,4,23,0.00
2012-1-6,50.7,39.2,28.8,14.2,8.4,2.9,41,29,16,29.94,29.71,17,3,17,0.00
2012-1-7,59.5,45.1,29.3,25.8,11.3,4.6,57,28,12,29.94,29.68,20,4,20,0.00
2012-1-8,43.5,36.7,27.3,14.7,3.7,-6.6,43,25,18,30.30,29.94,20,4,20,0.00
2012-1-9,43.0,31.5,23.0,9.7,0.9,-7.1,43,28,15,30.30,29.97,12,2,13,0.00
2012-1-10,46.4,36.0,26.4,11.6,8.6,-1.3,48,33,19,29.97,29.83,17,4,20,0.00
2012-1-11,46.6,35.2,23.9,27.1,10.6,1.8,67,38,17,30.09,29.88,13,2,13,0.00
2012-1-12,38.8,37.0,35.4,32.2,30.0,-13.6,82,76,10,29.88,29.47,12,4,12,0.67
2012-1-13,47.8,34.2,26.4,44.2,15.1,-7.8,87,51,21,29.74,29.23,34,8,34,0.08
2012-1-14,34.7,27.8,21.4,3.5,-3.3,-12.8,33,26,18,30.03,29.74,24,8,27,0.00
2012-1-15,21.4,14.7,8.2,0.0,-15.6,-22.9,29,19,17,30.53,30.03,18,5,18,0.00
2012-1-16,32.7,21.4,7.5,23.8,-9.9,-26.1,72,26,15,30.56,30.12,18,3,18,0.00
2012-1-17,140.0,37.9,31.8,41.5,30.3,-13.7,85,74,57,30.12,29.53,14,4,14,0.28
2012-1-18,47.3,34.0,18.3,40.4,0.7,-15.9,81,27,16,30.15,29.50,40,8,40,0.00
2012-1-19,32.0,23.2,11.8,19.9,-2.4,-16.4,64,34,18,30.27,29.91,10,2,10,0.00
2012-1-20,32.5,26.6,20.8,11.2,-4.5,-13.9,42,26,18,30.27,29.91,22,4,22,0.00
2012-1-21,43.9,20.3,14.7,23.4,2.3,-14.7,61,47,20,30.30,30.00,11,3,12,0.00
2012-1-22,32.9,21.0,6.1,10.1,2.0,-7.8,59,39,30,30.53,30.30,7,2,7,0.00
2012-1-23,48.7,35.0,27.9,44.9,25.7,-13.7,87,69,46,30.45,29.85,14,1,15,0.51
2012-1-24,53.2,45.0,35.8,44.8,28.4,12.2,89,58,27,30.12,29.85,22,6,24,0.00
2012-1-25,44.1,36.7,32.4,18.4,10.9,5.4,48,35,22,30.27,30.09,16,3,16,0.00
2012-1-26,38.1,34.3,31.3,29.5,16.9,10.1,77,51,32,30.21,29.85,8,1,8,0.20
2012-1-27,50.0,40.4,35.6,46.9,31.5,16.5,89,73,38,29.85,29.32,32,4,32,0.43
2012-1-28,47.7,38.8,30.9,16.8,10.6,4.1,43,32,19,30.03,29.77,22,4,22,0.00
2012-1-29,43.2,36.6,30.2,4.1,-3.9,-8.2,24,17,15,30.15,29.97,23,6,23,0.00
2012-1-30,39.4,33.2,26.4,4.6,-3.3,-10.4,31,21,16,30.27,29.94,24,5,24,0.00
2012-1-31,57.2,42.1,28.2,14.4,5.4,0.1,37,23,12,30.24,30.00,16,3,17,0.00
2012-2-1,62.2,51.3,40.8,26.8,16.8,4.1,46,26,16,30.00,29.83,24,5,24,0.00
2012-2-2,44.2,36.8,30.7,21.1,13.1,4.3,59,38,27,30.21,29.97,15,3,15,0.00
2012-2-3,42.4,32.7,24.6,4.7,-0.8,-5.6,33,24,15,30.42,30.21,19,4,19,0.00
2012-2-4,48.4,37.4,27.7,13.8,3.6,-3.2,41,25,14,30.30,30.09,15,3,15,0.00
2012-2-5,38.8,29.9,24.1,6.8,0.6,-8.6,44,30,16,30.15,30.09,13,2,15,0.00
2012-2-6,52.5,36.5,21.4,11.2,4.2,-0.9,48,28,13,30.12,29.91,20,4,20,0.00
2012-2-7,48.4,37.7,28.8,14.4,7.2,0.9,45,29,16,30.24,29.91,12,3,17,0.00
2012-2-8,41.0,32.0,25.5,4.2,-4.4,-10.7,32,21,13,30.30,30.06,11,3,12,0.00
2012-2-9,46.9,32.7,23.4,15.9,2.6,-7.3,60,30,14,30.12,30.03,15,2,15,0.00
2012-2-10,48.4,35.0,22.5,13.5,2.6,-2.5,52,27,14,30.12,29.88,17,3,17,0.00
2012-2-11,37.9,34.7,31.1,20.0,9.1,0.3,57,35,21,29.88,29.56,17,4,17,0.00
2012-2-12,31.3,22.7,15.1,0.8,-10.2,-17.8,33,23,18,29.91,29.65,27,7,27,0.00
2012-2-13,45.3,33.0,21.9,0.5,-3.1,-11.1,32,22,15,30.00,29.85,26,7,31,0.00
2012-2-14,46.4,36.3,30.0,16.1,-3.0,-8.5,43,19,14,30.09,30.00,9,1,9,0.00
2012-2-15,48.6,38.9,32.7,34.4,21.6,12.8,76,52,33,30.27,30.06,12,1,12,0.04
2012-2-16,39.7,33.8,26.1,33.7,21.7,13.2,80,62,35,30.30,30.00,10,1,10,0.20
2012-2-17,52.0,42.1,32.7,40.2,18.5,-5.4,83,47,14,30.00,29.88,19,4,19,0.08
2012-2-18,48.4,37.6,30.4,24.2,8.9,-1.8,72,34,14,30.06,29.85,18,4,18,0.08
2012-2-19,46.9,35.6,28.8,26.0,5.6,-6.5,76,33,14,30.06,29.97,17,2,17,0.08
2012-2-20,42.3,31.5,24.4,3.9,-1.3,-10.3,35,25,15,30.33,29.97,22,4,22,0.00
2012-2-21,45.3,33.4,19.2,27.9,9.6,-2.3,65,40,15,30.36,29.85,17,3,17,0.08
2012-2-22,58.1,45.8,35.4,30.4,17.1,1.1,74,39,12,29.85,29.50,20,4,20,0.08
2012-2-23,59.0,45.3,34.0,38.6,15.7,-7.9,76,37,12,29.77,29.38,33,4,33,0.00
2012-2-24,36.9,34.6,32.7,32.8,26.0,9.7,85,72,35,29.77,29.32,24,2,24,0.67
2012-2-25,45.3,37.0,28.8,33.1,4.4,-6.8,85,27,15,29.94,29.35,37,11,37,0.08
2012-2-26,43.3,33.0,25.3,0.4,-4.5,-8.5,33,20,15,30.42,29.94,25,6,27,0.08
2012-2-27,54.1,38.0,20.8,22.1,10.1,-1.3,55,34,15,30.42,30.06,18,3,18,0.00
2012-2-28,50.5,41.1,31.6,16.3,1.2,-5.4,32,19,14,30.39,30.09,31,4,31,0.08
2012-2-29,37.8,33.1,30.0,29.0,16.1,-2.2,83,54,23,30.39,29.80,8,1,9,0.08
2012-3-1,35.8,33.8,30.0,29.6,26.6,14.1,84,75,51,29.97,29.68,10,3,10,0.39
2012-3-2,36.3,31.9,27.0,28.5,17.2,-16.3,76,55,42,30.12,29.85,12,3,12,0.12
2012-3-3,56.3,44.0,35.2,45.0,23.0,-2.4,86,56,12,29.85,29.41,33,5,33,0.24
2012-3-4,49.6,38.6,31.3,2.4,-2.7,-5.8,22,17,14,29.71,29.56,20,5,20,0.00
2012-3-5,44.1,32.7,22.1,-0.8,-7.0,-16.0,24,17,13,30.36,29.71,23,7,23,0.08
2012-3-6,45.1,31.3,17.6,11.7,-5.9,-16.8,43,20,13,30.59,30.36,15,3,15,0.00
2012-3-7,62.2,46.1,28.8,24.6,11.4,2.9,50,28,11,30.56,30.30,18,4,19,0.08
2012-3-8,69.6,57.1,43.0,36.1,28.9,20.6,69,37,17,30.30,29.77,20,6,20,0.00
2012-3-9,59.7,42.2,33.1,31.9,8.6,-3.6,63,29,13,30.21,29.77,30,6,30,0.04
2012-3-10,44.6,33.4,26.4,-0.3,-5.7,-10.4,26,18,15,30.50,30.21,23,5,23,0.00
2012-3-11,61.5,44.1,25.9,7.2,2.6,-5.1,41,19,11,30.50,30.30,21,4,21,0.04
2012-3-12,75.2,55.9,38.5,16.1,10.1,4.8,36,18,10,30.33,30.12,16,4,16,0.00
2012-3-13,74.5,60.5,50.7,43.5,31.8,8.7,71,37,15,30.12,29.88,16,4,19,0.00
2012-3-14,70.9,57.1,44.1,42.6,21.3,0.1,72,33,10,30.21,29.94,23,3,23,0.00
2012-3-15,55.2,45.5,41.2,33.5,26.0,6.2,71,48,20,30.33,30.21,13,2,13,0.00
2012-3-16,51.3,44.4,39.9,36.8,32.1,28.6,76,62,46,30.30,30.09,10,2,10,0.00
2012-3-17,69.4,51.3,40.1,46.0,29.6,13.2,83,51,12,30.36,30.18,12,2,12,0.00
2012-3-18,74.7,55.2,41.2,41.1,31.9,-7.2,76,49,13,30.36,30.18,12,4,12,0.00
2012-3-19,81.5,60.9,43.9,48.1,33.3,16.6,81,44,10,30.24,30.12,13,3,13,0.00
2012-3-20,80.2,62.4,46.2,47.5,34.6,16.0,72,41,10,30.33,30.24,12,2,12,0.00
2012-3-21,72.1,62.0,55.0,56.5,46.9,36.0,82,61,28,30.36,30.27,10,1,10,0.00
2012-3-22,81.7,67.1,56.5,54.6,40.3,20.6,80,47,11,30.30,30.06,15,4,15,0.00
2012-3-23,77.5,63.9,54.0,53.2,31.6,11.2,82,39,10,30.12,30.03,13,2,13,0.00
2012-3-24,63.5,55.4,48.6,33.2,10.6,1.5,44,18,11,30.09,30.00,12,2,12,0.00
2012-3-25,52.0,46.2,41.0,30.0,22.1,1.2,53,40,14,30.00,29.71,5,1,8,0.04
2012-3-26,51.3,42.8,31.6,39.5,10.8,-10.7,74,33,14,30.09,29.68,33,6,33,0.04
2012-3-27,48.7,35.9,25.7,1.7,-7.5,-14.3,17,15,13,30.24,30.09,23,5,23,0.04
2012-3-28,63.5,42.6,33.3,41.9,6.8,-6.8,75,25,15,30.15,29.56,13,3,17,0.39
2012-3-29,53.2,47.3,40.5,23.1,13.7,8.0,39,26,21,29.97,29.68,19,6,20,0.00
2012-3-30,57.2,45.4,34.0,10.1,3.4,-1.6,29,18,12,30.06,29.94,14,4,20,0.00
2012-3-31,45.0,38.9,36.3,31.5,26.3,8.0,80,62,22,30.00,29.88,10,2,10,0.16
2012-4-1,52.5,44.3,38.1,36.2,27.6,17.0,74,56,26,29.91,29.62,13,2,13,0.16
2012-4-2,56.8,45.6,38.8,35.8,13.2,-2.4,74,33,12,29.85,29.59,21,6,24,0.00
2012-4-3,65.5,47.5,29.3,8.5,3.1,-6.2,35,17,10,29.91,29.74,21,3,23,0.00
2012-4-4,69.6,54.2,38.7,12.6,5.4,-3.1,29,14,10,29.77,29.50,24,4,27,0.00
2012-4-5,56.7,45.8,37.8,9.9,4.2,-4.4,30,19,12,29.94,29.71,19,5,19,0.00
2012-4-6,57.4,44.2,29.8,11.7,3.3,-2.4,41,20,12,30.03,29.88,19,4,20,0.00
2012-4-7,61.3,47.8,31.5,7.2,1.9,-6.1,30,15,11,30.06,29.94,23,4,30,0.00
2012-4-8,67.8,52.1,34.3,10.9,3.8,-5.4,32,14,10,30.00,29.65,25,4,25,0.00
2012-4-9,64.8,54.4,45.9,8.1,4.0,-0.6,16,13,10,29.68,29.59,31,9,37,0.00
2012-4-10,65.3,52.3,40.6,14.8,3.7,-2.4,31,14,10,29.77,29.62,21,6,24,0.00
2012-4-11,58.8,46.0,36.9,21.3,12.5,1.7,49,29,12,29.88,29.77,15,3,16,0.00
2012-4-12,64.0,49.3,39.9,22.0,13.6,2.0,48,27,10,30.12,29.88,20,4,20,0.00
2012-4-13,68.2,52.3,35.6,26.1,11.2,0.5,56,24,10,30.18,30.09,16,3,18,0.00
2012-4-14,76.1,56.9,35.8,21.6,11.4,-0.3,44,19,10,30.21,30.00,16,3,16,0.00
2012-4-15,81.0,66.0,55.9,42.7,30.7,18.6,53,29,12,30.03,29.91,12,3,19,0.00
2012-4-16,92.7,71.3,53.8,53.7,35.8,17.5,81,37,10,30.00,29.91,13,2,16,0.00
2012-4-17,81.3,67.0,55.2,50.3,23.8,3.5,72,26,10,30.18,29.91,12,4,17,0.00
2012-4-18,65.3,54.2,44.2,10.1,5.2,-0.2,18,14,10,30.27,30.12,13,4,15,0.00
2012-4-19,77.7,61.0,50.0,28.9,18.9,8.2,43,22,10,30.12,29.97,14,4,14,0.00
2012-4-20,79.2,61.0,44.6,43.1,27.0,12.8,75,34,10,30.03,29.88,15,3,15,0.00
2012-4-21,77.7,64.7,53.4,49.5,39.4,28.7,75,43,18,29.88,29.68,17,4,18,0.04
2012-4-22,53.6,46.8,44.1,42.9,35.3,25.2,84,65,39,29.80,29.41,15,4,16,1.54
2012-4-23,53.1,48.0,43.5,49.2,36.8,23.8,89,67,42,29.41,29.21,13,4,15,0.71
2012-4-24,57.9,48.0,38.7,28.1,16.7,3.5,56,32,12,29.68,29.35,22,5,22,0.00
2012-4-25,64.2,49.5,36.1,25.3,13.1,3.1,51,27,10,29.91,29.68,16,3,22,0.00
2012-4-26,58.8,47.0,32.7,47.2,29.8,17.1,81,55,22,29.94,29.59,10,1,10,0.00
2012-4-27,59.4,48.4,37.6,48.6,13.0,-2.5,83,29,12,30.09,29.56,30,8,30,0.00
2012-4-28,65.3,49.0,33.1,14.5,5.6,-0.9,41,19,10,30.21,30.06,17,4,22,0.08
2012-4-29,65.7,50.5,34.3,8.1,2.3,-5.4,22,14,10,30.24,30.03,22,4,24,0.00
2012-4-30,69.4,50.5,32.2,20.7,6.4,-5.0,40,18,10,30.33,30.18,16,3,16,0.00
2012-5-1,65.5,53.4,47.7,48.3,37.1,19.5,77,56,31,30.21,29.97,10,2,10,0.24
2012-5-2,55.8,51.1,47.1,40.2,34.7,30.7,69,54,40,30.18,30.09,8,1,8,0.00
2012-5-3,55.9,52.5,49.6,48.1,43.8,35.5,82,73,55,30.15,30.09,8,2,8,0.20
2012-5-4,80.4,61.6,50.7,54.2,46.9,37.9,86,63,23,30.12,29.85,15,3,15,0.31
2012-5-5,67.5,59.8,56.5,52.3,47.0,40.4,82,64,39,30.06,29.91,10,1,10,0.00
2012-5-6,71.8,60.0,50.5,48.8,34.6,18.1,77,43,14,30.12,30.03,13,2,13,0.00
2012-5-7,73.9,58.8,48.7,37.8,28.6,17.8,62,35,13,30.15,30.09,13,2,13,0.00
2012-5-8,64.2,56.8,52.9,51.1,38.2,27.7,80,52,33,30.09,29.85,12,4,21,0.28
2012-5-9,69.8,61.7,56.7,60.6,52.9,46.9,83,74,45,29.85,29.59,8,1,9,0.16
2012-5-10,66.2,56.5,48.0,54.4,31.2,8.3,80,46,13,29.80,29.50,28,4,28,0.51
2012-5-11,73.2,56.9,44.1,25.8,15.6,2.9,47,23,10,30.09,29.80,20,3,20,0.00
2012-5-12,84.4,62.9,39.7,32.6,20.4,-11.8,67,26,10,30.21,30.09,14,2,14,0.00
2012-5-13,87.8,68.0,50.2,47.2,30.5,14.2,70,32,10,30.18,30.06,19,2,19,0.00
2012-5-14,73.2,65.1,60.8,54.6,46.9,37.9,79,54,30,30.15,30.09,13,1,13,0.04
2012-5-15,64.4,61.6,59.0,56.9,52.9,41.9,83,74,44,30.12,29.97,11,1,11,0.35
2012-5-16,80.1,67.2,61.2,61.0,53.9,41.7,86,66,26,29.97,29.83,11,1,11,0.04
2012-5-17,76.3,61.1,50.2,53.2,21.8,8.2,67,26,10,30.15,29.88,14,2,14,0.00
2012-5-18,79.5,59.3,43.5,40.9,25.0,6.0,74,35,10,30.24,30.15,10,1,11,0.00
2012-5-19,86.9,64.1,45.1,42.5,27.8,10.9,74,34,10,30.21,30.09,7,0,7,0.00
2012-5-20,83.1,64.6,50.2,45.9,25.5,3.9,73,31,10,30.27,30.18,11,1,11,0.00
2012-5-21,64.4,60.3,53.6,57.6,42.7,10.6,83,56,20,30.27,30.03,7,0,7,0.28
2012-5-22,69.6,64.1,61.0,60.0,56.9,53.0,86,78,58,30.03,29.83,5,0,6,0.12
2012-5-23,76.5,66.8,60.6,61.2,53.9,44.3,83,65,33,30.06,29.85,10,0,10,0.00
2012-5-24,75.6,65.0,59.5,59.1,51.6,43.0,83,64,32,30.24,30.06,9,0,9,0.00
2012-5-25,73.8,65.0,59.2,60.9,56.3,51.2,84,74,49,30.24,30.12,9,1,9,0.35
2012-5-26,88.2,73.7,66.9,62.5,56.0,43.2,81,58,26,30.15,30.06,15,2,15,0.35
2012-5-27,87.3,72.1,62.2,58.9,45.2,22.0,81,48,10,30.18,30.03,9,0,9,0.55
2012-5-28,92.3,74.2,63.5,68.5,55.1,41.3,82,58,18,30.03,29.91,9,0,9,0.00
2012-5-29,93.4,78.0,67.3,66.4,53.2,39.8,79,48,16,29.91,29.71,17,2,18,0.04
2012-5-30,81.1,71.0,65.5,63.6,55.0,35.2,80,61,20,29.80,29.74,9,1,9,0.04
2012-5-31,83.3,69.2,60.4,55.1,34.8,14.1,80,37,10,29.94,29.74,12,1,14,0.04
2012-6-1,74.1,61.8,52.9,49.2,37.0,28.1,76,43,21,30.03,29.88,14,2,14,0.04
2012-6-2,76.3,63.4,56.7,62.0,48.7,28.4,89,65,23,29.88,29.68,13,1,13,1.22
2012-6-3,77.4,63.3,53.6,49.5,35.3,13.9,74,40,10,29.77,29.62,20,2,27,0.08
2012-6-4,63.5,55.9,50.5,45.1,37.6,25.0,69,52,25,29.83,29.65,8,1,9,0.04
2012-6-5,67.3,55.5,48.9,49.0,39.3,28.7,75,56,32,29.94,29.80,8,0,8,0.16
2012-6-6,75.4,60.6,50.2,53.9,37.3,14.2,82,51,11,30.00,29.94,15,1,21,2.80
2012-6-7,81.7,64.2,52.9,53.2,37.7,14.2,79,49,10,30.00,29.91,50,1,50,6.14
2012-6-8,84.0,66.4,54.5,57.6,37.7,15.5,81,46,10,29.94,29.83,116,1,116,1.10
2012-6-9,75.4,65.1,58.5,54.5,47.0,37.7,73,54,27,30.00,29.85,20,0,20,0.00
2012-6-10,86.4,70.4,59.9,60.5,49.0,37.3,81,52,20,30.21,29.97,10,1,10,0.12
2012-6-11,79.9,67.7,60.4,54.3,42.1,16.6,73,46,10,30.27,30.21,13,2,13,0.00
2012-6-12,71.4,65.2,60.4,59.7,54.0,47.5,83,68,45,30.21,29.94,11,2,11,0.28
2012-6-13,75.2,66.0,62.8,60.5,55.9,44.4,84,72,35,30.09,29.91,5,0,8,0.87
2012-6-14,79.9,68.0,59.4,56.5,45.4,33.2,81,50,20,30.27,30.09,7,1,7,0.04
2012-6-15,82.8,68.4,59.4,57.0,37.8,14.2,80,43,10,30.33,30.27,9,0,9,0.00
2012-6-16,84.4,66.5,53.6,54.2,38.8,18.1,80,45,10,30.36,30.24,10,0,10,0.00
2012-6-17,77.2,64.8,55.6,49.7,40.7,29.8,68,44,21,30.27,30.12,11,1,11,0.04
2012-6-18,79.3,63.5,52.0,49.2,39.0,21.2,74,46,12,30.15,30.09,11,2,11,0.04
2012-6-19,78.3,66.5,56.8,56.2,48.9,42.2,71,55,31,30.18,30.06,10,2,10,0.00
2012-6-20,98.8,80.2,64.0,67.6,52.6,34.2,79,47,13,30.09,29.94,13,1,14,0.00
2012-6-21,99.1,83.9,71.8,67.7,49.8,29.0,78,40,10,29.94,29.80,12,2,12,0.00
2012-6-22,93.2,76.4,68.7,65.8,58.5,41.3,80,58,20,29.85,29.74,11,0,11,0.35
2012-6-23,89.8,73.6,63.1,63.2,43.0,17.0,81,44,10,30.00,29.83,13,2,13,0.00
2012-6-24,87.8,71.3,57.2,55.5,36.8,17.3,75,37,10,30.03,29.91,10,1,12,0.00
2012-6-25,75.2,65.2,58.6,61.2,53.8,38.5,85,68,32,29.91,29.68,18,1,18,0.98
2012-6-26,65.3,58.4,53.4,40.9,36.7,34.6,59,45,33,29.71,29.68,15,2,15,0.00
2012-7-4,92.8,84.0,73.4,65.5,52.3,39.9,75,38,17,29.80,29.71,7,1,9,0.12
2012-7-5,90.9,76.8,68.0,69.0,51.9,24.4,85,51,10,29.88,29.71,10,1,12,0.00
2012-7-6,94.3,76.2,63.1,63.1,47.1,24.0,80,45,10,29.94,29.85,9,0,12,0.00
2012-7-7,90.3,75.9,68.2,65.4,55.4,29.6,79,53,13,29.88,29.77,12,1,16,0.00
2012-7-8,94.6,77.3,66.6,64.9,49.6,24.1,81,48,10,29.91,29.80,10,1,10,0.00
2012-7-9,88.9,73.6,62.4,53.2,39.2,20.8,67,35,10,30.00,29.88,7,0,10,0.00
2012-7-10,91.2,72.4,59.0,53.7,39.4,18.4,69,38,10,30.09,30.00,6,0,9,0.00
2012-7-11,90.1,74.8,63.5,60.0,46.8,23.8,78,45,10,30.21,30.09,9,1,10,0.00
2012-7-12,93.0,77.4,65.1,62.2,42.1,24.0,79,36,10,30.21,30.12,10,1,10,0.00
2012-7-13,88.7,77.8,66.6,59.0,48.4,39.4,69,38,19,30.21,30.15,9,1,10,0.00
2012-7-14,92.1,79.1,68.5,63.6,43.8,24.5,75,35,10,30.21,30.12,9,2,14,0.00
2012-7-15,85.1,74.5,68.4,66.7,56.3,43.2,83,56,31,30.15,29.94,7,1,30,2.76
2012-7-16,92.8,78.0,69.3,66.9,55.7,36.4,84,54,14,29.94,29.80,10,1,13,0.12
2012-7-17,97.5,81.8,69.1,67.0,47.8,27.1,81,42,10,29.85,29.74,12,3,15,0.00
2012-7-18,100.2,82.2,73.9,63.8,53.3,32.7,70,40,10,29.91,29.77,11,1,16,0.08
2012-7-19,82.8,71.1,65.1,65.3,53.8,35.9,80,58,20,30.03,29.88,4,0,6,0.35
2012-7-20,67.3,63.5,60.3,58.8,56.5,54.1,82,78,64,30.09,29.97,5,0,5,0.43
2012-7-21,84.0,69.1,60.1,60.1,42.7,20.3,86,49,11,30.15,30.06,5,0,9,0.00
2012-7-22,87.1,70.1,57.2,58.6,43.8,27.5,79,46,13,30.18,30.12,7,1,10,0.00
2012-7-23,86.5,74.2,65.7,65.9,57.1,43.6,81,58,29,30.15,29.80,9,1,11,0.35
2012-7-24,92.7,77.1,68.4,65.1,52.1,30.3,80,49,11,29.80,29.59,12,2,16,0.08
2012-7-25,88.7,72.4,60.8,49.6,34.9,20.0,52,29,10,29.88,29.77,9,2,15,0.00
2012-7-26,91.0,73.5,65.8,63.7,55.2,48.0,79,56,23,29.80,29.65,20,2,28,0.00
2012-7-27,91.0,77.7,69.8,66.3,58.0,40.7,82,56,18,29.91,29.68,9,1,12,0.00
2012-7-28,78.1,71.4,66.6,64.5,61.7,50.8,84,72,45,29.97,29.88,5,0,19,0.00
2012-7-29,79.9,70.5,66.4,64.2,56.6,44.5,86,65,30,30.09,29.91,5,0,6,0.00
2012-7-30,84.9,70.8,63.1,62.3,53.1,36.6,82,59,20,30.15,30.09,5,0,9,0.00
2012-7-31,75.9,69.1,63.3,60.2,53.6,45.3,81,60,36,30.12,29.94,4,0,7,0.00
2012-8-1,82.8,72.4,64.9,63.9,57.2,47.4,81,62,31,29.94,29.85,9,1,11,0.00
2012-8-2,93.2,77.6,67.3,66.8,51.8,24.2,82,52,10,29.94,29.85,11,1,12,0.00
2012-8-3,94.3,80.2,68.5,66.7,55.5,36.8,79,49,14,30.12,29.94,8,1,12,0.00
2012-8-4,93.6,79.6,70.3,70.3,57.6,41.4,80,53,18,30.24,30.12,7,1,11,0.00
2012-8-5,92.8,79.7,72.5,68.5,61.7,51.8,79,58,27,30.24,29.94,12,3,18,0.00
2012-8-6,87.1,75.5,65.7,66.3,49.2,22.2,81,49,10,30.03,29.97,17,2,17,0.00
2012-8-7,87.8,72.2,60.4,58.4,45.6,22.8,80,47,10,30.03,29.97,7,0,10,0.00
2012-8-8,89.2,74.8,63.0,65.2,52.9,34.7,79,53,15,30.03,29.94,6,0,7,0.00
2012-8-9,91.8,76.8,69.4,67.9,56.5,40.4,82,55,17,29.97,29.88,8,1,12,0.08
2012-8-10,80.4,74.4,69.4,68.6,64.8,58.4,81,72,51,29.91,29.80,6,1,9,1.02
2012-8-11,87.6,76.7,70.3,71.3,60.8,49.0,85,62,28,29.91,29.83,10,2,13,0.00
2012-8-12,89.8,78.2,68.7,66.1,47.2,23.3,78,42,10,29.94,29.88,15,2,15,0.00
2012-8-13,88.7,73.1,63.0,58.8,46.1,22.7,75,46,10,30.00,29.94,12,1,12,0.00
2012-8-14,81.5,70.2,62.8,63.2,56.1,44.0,80,63,29,30.00,29.91,7,0,8,0.00
2012-8-15,79.5,70.6,64.0,66.3,61.2,52.1,86,73,40,29.94,29.85,10,0,10,0.00
2012-8-16,87.6,73.4,65.7,62.1,49.1,23.4,83,52,10,29.91,29.85,13,1,13,0.00
2012-8-17,90.3,73.5,60.8,61.4,49.3,29.6,78,50,12,29.91,29.80,15,1,15,0.00
2012-8-18,82.8,69.4,59.7,63.2,48.6,22.2,82,56,11,29.94,29.85,11,1,11,0.24
2012-8-19,75.2,63.8,54.5,52.4,45.8,33.4,78,56,23,30.00,29.94,4,0,4,0.67
2012-8-20,84.4,67.8,57.9,59.7,47.8,31.0,81,54,16,29.94,29.85,8,0,8,0.35
2012-8-21,84.4,70.4,62.6,56.8,45.2,20.1,76,48,10,30.12,29.94,12,1,12,0.28
2012-8-22,86.9,70.3,59.5,60.3,46.5,21.6,81,50,10,30.18,30.12,10,0,10,0.00
2012-8-23,89.2,72.4,60.6,63.9,47.5,22.1,81,50,10,30.18,30.12,8,0,8,0.00
2012-8-24,89.4,72.9,62.2,63.0,49.6,24.1,81,52,10,30.21,30.15,3,0,3,0.00
2012-8-25,86.4,71.1,63.0,63.9,49.5,23.4,81,53,11,30.33,30.21,7,0,7,0.00
2012-8-26,84.9,70.6,59.9,59.2,44.6,21.1,81,49,10,30.36,30.24,4,0,7,0.00
2012-8-27,83.5,71.3,60.8,65.0,55.2,47.0,81,60,30,30.27,29.97,11,2,11,0.00
2012-8-28,89.4,76.7,65.7,66.1,50.9,23.8,79,48,10,29.97,29.80,17,2,17,0.04
2012-8-29,81.1,67.0,57.2,51.0,36.8,15.2,73,41,10,30.03,29.91,13,1,13,0.00
2012-8-30,84.0,65.6,50.9,53.6,37.3,15.1,80,46,10,30.12,30.03,11,1,11,0.00
2012-8-31,92.7,75.2,59.2,52.4,36.6,21.2,70,32,10,30.06,29.88,14,2,14,0.00
2012-9-1,92.3,76.9,66.2,59.0,46.1,26.0,67,39,10,30.12,29.91,9,1,9,0.00
2012-9-2,82.9,70.9,65.1,62.3,55.0,42.8,80,59,26,30.12,30.03,7,0,7,0.00
2012-9-3,75.2,67.9,61.2,61.1,51.7,36.7,82,59,25,30.21,30.12,8,0,8,0.00
2012-9-4,79.9,71.9,66.4,67.6,60.7,53.9,79,68,45,30.15,29.85,10,1,10,0.00
2012-9-5,85.6,74.9,67.6,68.4,61.8,47.1,83,67,28,29.85,29.80,13,2,13,1.10
2012-9-6,83.8,70.6,63.5,65.3,57.4,43.8,83,66,27,29.94,29.85,8,0,8,0.00
2012-9-7,89.4,74.9,65.1,67.8,56.1,38.8,84,59,18,29.94,29.85,10,0,10,0.00
2012-9-8,80.8,71.6,63.5,70.4,60.8,51.2,82,70,44,29.88,29.59,18,2,18,2.32
2012-9-9,78.1,66.1,59.2,57.2,47.4,26.1,83,58,17,29.88,29.77,10,1,10,0.08
2012-9-10,72.0,60.1,51.8,51.5,34.8,11.4,80,46,11,30.24,29.88,20,2,20,0.00
2012-9-11,75.0,57.8,45.1,45.0,32.2,13.6,76,46,10,30.30,30.15,12,0,12,0.00
2012-9-12,82.9,63.1,49.6,59.0,38.4,15.4,82,52,10,30.39,30.30,6,0,7,0.00
2012-9-13,84.2,66.3,52.0,56.3,40.9,21.1,80,50,10,30.39,30.27,10,0,10,0.00
2012-9-14,83.8,67.2,55.0,59.2,45.2,22.7,80,53,11,30.30,30.09,13,1,13,0.00
2012-9-15,75.0,63.2,52.7,55.1,39.7,15.5,80,50,11,30.12,30.06,18,2,18,0.04
2012-9-16,75.7,59.0,46.8,50.7,35.5,14.1,80,51,10,30.15,30.03,16,1,16,0.00
2012-9-17,81.0,61.1,47.1,55.0,39.1,18.6,81,53,10,30.12,30.03,9,0,9,0.00
2012-9-18,72.9,66.1,56.3,64.4,58.3,46.5,86,76,59,30.06,29.65,21,4,22,1.54
2012-9-19,71.8,62.0,50.4,61.8,38.1,13.6,82,49,11,30.21,29.74,17,2,17,0.08
2012-9-20,68.5,55.8,44.6,47.6,40.2,33.8,83,59,29,30.24,30.12,11,0,11,0.00
2012-9-21,75.9,60.0,50.0,53.4,39.5,14.8,82,56,13,30.15,30.03,7,0,7,0.00
2012-9-22,71.1,61.9,53.2,60.5,49.8,41.4,82,66,37,30.03,29.80,15,1,15,0.24
2012-9-23,71.4,59.4,47.8,53.7,36.1,11.4,83,51,11,30.12,29.85,13,2,13,0.04
2012-9-24,69.4,53.9,44.8,46.9,29.8,6.4,81,50,10,30.18,30.09,12,1,12,0.00
2012-9-25,74.7,57.6,40.8,47.1,31.0,13.4,80,46,10,30.18,30.12,17,2,17,0.00
2012-9-26,71.8,64.1,58.6,56.5,49.7,41.5,82,60,40,30.15,30.03,10,1,10,0.04
2012-9-27,77.5,65.6,57.9,58.6,46.3,23.8,81,55,15,30.21,30.03,10,1,10,0.00
2012-9-28,59.7,57.1,54.9,53.9,50.7,41.7,85,79,56,30.21,29.97,5,0,5,0.28
2012-9-29,61.9,57.5,55.0,51.3,48.7,42.9,82,73,52,29.97,29.88,7,0,7,0.08
2012-9-30,69.4,58.1,50.9,55.7,43.1,21.9,84,62,17,29.91,29.77,15,1,15,0.04
2012-10-1,71.2,57.8,49.5,45.3,35.6,27.9,72,47,22,29.97,29.80,19,4,20,0.00
2012-10-2,63.3,57.7,53.2,54.7,50.9,44.6,85,78,65,30.06,29.97,8,0,8,0.87
2012-10-3,70.2,64.5,59.2,64.9,58.9,54.7,87,82,72,30.12,30.00,3,0,3,0.00
2012-10-4,69.8,67.1,64.8,64.4,61.7,59.1,85,83,80,30.15,30.03,7,0,7,0.20
2012-10-5,79.9,67.1,60.1,62.1,47.5,22.2,85,58,12,30.06,29.94,8,0,8,0.00
2012-10-6,76.3,61.7,52.3,55.8,41.6,23.4,81,51,23,29.97,29.77,20,2,20,0.00
2012-10-7,54.0,49.0,41.7,38.9,31.0,23.2,71,51,32,30.12,29.97,9,0,9,0.04
2012-10-8,56.5,47.5,38.8,43.8,32.4,22.0,82,59,27,30.30,30.09,7,0,7,0.08
2012-10-9,57.2,51.7,46.0,42.6,38.9,33.0,78,63,42,30.27,30.12,5,0,6,0.00
2012-10-10,65.1,55.0,50.2,54.9,41.8,25.2,83,63,35,30.12,29.80,19,1,22,0.16
2012-10-11,62.2,50.4,41.9,38.2,17.6,2.9,50,30,11,30.18,29.91,17,3,17,0.08
2012-10-12,54.9,44.1,36.7,38.2,20.6,1.2,75,44,16,30.42,30.06,15,2,15,0.00
2012-10-13,57.6,42.7,28.8,26.3,11.4,0.5,65,33,12,30.50,30.30,11,1,11,0.04
2012-10-14,70.5,58.0,46.9,46.9,32.9,22.7,62,40,22,30.30,29.97,18,3,18,0.00
2012-10-15,70.3,63.3,57.2,53.5,48.1,41.5,77,59,36,29.97,29.65,13,3,13,0.28
2012-10-16,61.3,52.5,41.0,51.1,26.5,7.9,79,42,14,29.91,29.65,21,3,21,0.04
2012-10-17,64.2,47.8,35.4,38.0,25.0,10.5,76,47,13,30.03,29.91,9,1,9,0.00
2012-10-18,68.7,51.6,36.9,49.4,33.2,24.1,79,55,20,30.06,30.00,13,1,13,0.00
2012-10-19,65.5,62.5,56.7,60.3,56.4,45.4,85,80,66,30.00,29.71,16,2,16,1.73
2012-10-20,74.1,63.0,49.6,59.5,37.2,10.4,84,49,11,29.83,29.65,10,2,16,0.00
2012-10-21,66.9,55.1,44.6,29.1,18.4,-1.3,51,27,10,29.97,29.83,24,4,24,0.00
2012-10-22,69.4,56.6,46.6,29.1,20.2,7.5,47,27,10,30.09,29.97,19,2,19,0.00
2012-10-23,62.2,52.1,44.1,46.9,35.7,-1.3,79,56,25,30.12,30.06,7,0,7,0.12
2012-10-24,55.2,52.8,50.0,48.6,41.9,29.9,83,68,38,30.21,30.12,4,0,5,0.12
2012-10-25,60.1,54.7,50.4,48.3,41.0,32.0,81,62,35,30.30,30.21,5,0,5,0.00
2012-10-26,64.4,58.3,52.7,49.4,44.9,40.6,75,62,43,30.24,30.12,8,0,8,0.00
2012-10-27,64.4,59.3,55.2,52.9,44.7,36.2,78,60,36,30.12,29.94,5,0,5,0.00
2012-10-28,56.5,54.7,52.2,46.9,33.5,21.3,72,46,28,29.94,29.71,12,4,13,0.00
2012-10-29,65.7,56.3,51.4,55.8,43.5,33.6,84,63,41,29.71,28.79,30,8,30,0.24
2012-10-30,59.0,55.5,49.3,46.2,36.1,29.1,69,49,34,29.50,29.09,22,5,22,0.12
2012-10-31,52.2,47.8,45.0,40.4,27.2,18.5,68,45,29,29.59,29.47,13,3,13,0.00
2012-11-1,58.5,47.2,39.6,30.7,24.0,19.4,60,41,25,29.59,29.53,13,4,13,0.00
2012-11-2,56.5,47.3,41.2,26.4,19.1,7.1,46,34,15,29.71,29.59,19,4,19,0.00
2012-11-3,53.4,43.8,38.7,19.8,13.9,4.0,42,31,16,29.91,29.71,20,4,21,0.00
2012-11-4,52.7,41.6,36.0,18.1,12.9,5.0,43,32,16,29.97,29.88,16,4,16,0.00
2012-11-5,44.4,36.8,28.0,11.4,4.3,-2.7,32,26,17,30.18,29.97,17,4,17,0.00
2012-11-6,45.3,32.0,22.1,12.7,3.0,-6.5,55,31,15,30.24,30.12,10,1,10,0.00
2012-11-7,37.4,32.1,26.8,26.5,17.1,-14.3,83,57,32,30.12,29.77,16,2,16,0.00
2012-11-8,42.1,36.6,30.0,24.0,12.7,8.8,78,38,28,29.88,29.71,27,4,27,0.20
2012-11-9,54.0,42.3,34.2,17.4,5.8,-2.6,37,23,13,30.18,29.88,22,4,22,0.00
2012-11-10,58.5,46.6,35.8,26.5,20.9,14.7,54,37,19,30.42,30.18,14,2,14,0.00
2012-11-11,65.7,51.2,38.5,42.9,31.2,22.2,75,50,20,30.50,30.42,13,2,13,0.00
2012-11-12,64.4,54.8,39.7,51.5,43.8,34.4,85,68,37,30.47,30.21,14,3,14,0.00
2012-11-13,61.7,46.2,33.6,51.3,30.1,13.1,74,54,34,30.45,30.12,17,4,17,0.12
2012-11-14,49.1,36.9,28.8,18.7,10.7,1.4,61,37,16,30.53,30.45,10,1,10,0.04
2012-11-15,47.8,35.2,26.1,18.3,10.8,2.8,60,39,16,30.47,30.30,9,1,10,0.00
2012-11-16,48.9,36.5,29.7,19.5,10.6,-1.1,60,37,16,30.45,30.30,13,2,13,0.00
2012-11-17,53.1,37.9,27.5,18.5,12.1,3.4,57,37,15,30.65,30.45,11,1,11,0.00
2012-11-18,50.0,35.7,25.2,29.9,15.0,3.5,77,47,16,30.68,30.59,8,1,9,0.00
2012-11-19,49.6,35.5,25.3,28.0,19.6,15.1,77,56,27,30.59,30.27,8,1,8,0.04
2012-11-20,49.8,35.8,26.4,31.4,19.1,10.6,80,55,21,30.27,30.12,6,0,6,0.00
2012-11-21,55.0,39.9,30.0,25.0,12.2,-2.2,69,38,12,30.24,30.15,7,1,8,0.00
2012-11-22,57.4,40.0,26.8,25.9,19.6,11.6,71,48,17,30.27,30.15,8,0,8,0.00
2012-11-23,58.3,42.7,28.0,39.6,27.5,18.7,79,59,24,30.15,29.65,12,2,12,0.00
2012-11-24,46.9,40.1,32.7,39.8,6.6,-5.5,77,28,14,29.77,29.65,30,8,30,0.04
2012-11-25,41.5,35.2,31.3,8.0,1.5,-4.4,32,24,16,29.91,29.77,24,7,24,0.00
2012-11-26,48.6,37.7,27.5,10.1,3.5,-5.4,42,25,14,30.24,29.91,22,4,22,0.00
2012-11-27,34.2,31.8,27.9,27.6,19.8,7.8,80,62,42,30.30,30.21,5,0,5,0.00
2012-11-28,41.5,33.5,26.6,29.3,16.3,-16.0,82,54,23,30.24,30.15,18,2,18,0.12
2012-11-29,44.1,34.3,25.7,15.7,9.2,-0.6,54,37,17,30.30,30.21,17,3,17,0.00
2012-11-30,41.9,34.0,28.9,15.5,11.3,3.5,51,39,29,30.47,30.27,7,2,8,0.00
2012-12-1,34.0,31.5,28.8,28.0,16.7,3.3,79,56,30,30.56,30.45,7,2,7,0.00
2012-12-2,50.5,42.1,33.8,44.3,34.4,28.0,85,75,46,30.45,30.09,13,2,13,0.08
2012-12-3,57.7,46.3,34.7,49.0,34.0,25.6,85,66,30,30.30,30.09,11,2,11,0.00
2012-12-4,54.9,44.7,33.8,50.0,39.6,27.1,85,82,74,30.30,29.97,9,1,10,0.08
2012-12-5,54.9,47.3,31.6,48.6,22.8,-1.9,86,45,15,30.21,29.91,27,6,27,0.00
2012-12-6,40.3,29.9,22.6,5.0,-3.3,-7.8,46,24,16,30.36,30.21,16,3,16,0.00
2012-12-7,39.7,31.9,21.4,32.9,19.5,5.0,79,61,40,30.27,30.03,7,0,7,0.12
2012-12-8,48.4,43.5,38.5,44.1,38.7,32.9,85,83,79,30.03,29.85,10,2,11,0.20
2012-12-9,46.6,41.3,38.8,41.5,29.3,17.8,85,65,38,30.27,30.00,10,2,10,0.16
2012-12-10,57.9,48.3,39.2,53.9,43.7,34.2,87,84,78,30.06,29.56,19,2,19,0.04
2012-12-11,49.1,41.3,31.1,42.5,18.9,9.2,78,42,24,30.18,29.59,17,2,17,0.04
2012-12-12,43.3,33.0,27.0,22.1,12.0,2.6,62,43,21,30.45,30.18,9,1,9,0.00
2012-12-13,45.7,32.2,24.6,24.2,12.2,1.2,74,47,17,30.47,30.30,9,1,9,0.00
2012-12-14,48.6,33.0,21.6,24.7,8.8,-2.5,73,41,14,30.30,30.12,14,2,15,0.00
2012-12-15,45.9,32.8,23.5,26.6,14.0,7.4,71,48,22,30.33,30.21,7,0,7,0.00
2012-12-16,35.4,34.7,33.1,30.8,24.4,15.9,84,67,47,30.24,29.97,10,3,10,0.04
2012-12-17,38.3,36.5,34.7,34.9,32.1,30.1,88,84,82,29.97,29.68,9,4,9,0.35
2012-12-18,50.5,43.2,38.1,46.6,37.9,24.6,88,82,54,29.68,29.47,20,3,20,0.63
2012-12-19,49.5,41.1,34.3,25.5,10.4,-1.3,56,29,16,30.09,29.56,24,6,24,0.00
2012-12-20,45.0,36.5,29.1,31.3,13.2,6.9,72,39,22,30.21,29.88,11,2,11,0.00
2012-12-21,56.5,43.6,36.3,50.5,29.0,13.9,85,59,35,29.88,29.06,27,8,27,1.10
2012-12-22,36.9,34.0,32.0,26.3,9.3,-1.4,72,38,23,29.77,29.29,35,9,35,0.04
2012-12-23,41.0,34.5,28.4,8.7,3.4,-1.8,33,27,21,29.91,29.74,24,5,24,0.00
2012-12-24,38.7,30.8,23.7,17.3,4.9,-2.4,59,34,19,30.09,29.91,10,1,10,0.00
2012-12-25,38.7,32.1,27.1,29.3,17.5,8.5,78,56,37,30.24,29.91,15,3,15,0.08
2012-12-26,34.0,27.9,22.1,27.2,11.2,2.0,78,51,31,30.30,29.59,18,4,18,0.00
2012-12-27,37.4,34.1,28.9,30.0,21.8,6.5,80,62,38,29.77,29.32,25,7,25,0.71
2012-12-28,37.8,30.5,25.2,10.4,7.4,3.9,51,38,29,30.06,29.77,22,4,24,0.00
2012-12-29,30.7,27.7,23.0,23.6,16.2,9.1,79,62,45,30.03,29.47,11,2,11,0.00
2012-12-30,35.6,28.5,23.5,21.4,1.9,-9.7,71,34,18,30.09,29.53,30,7,30,0.00
2012-12-31,37.2,30.0,21.0,7.4,2.7,-9.2,43,31,22,30.12,29.83,20,6,20,0.00
2013-1-1,38.7,32.9,21.0,11.3,2.8,-9.3,36,28,19,29.97,29.80,28,6,28,0.00